Content
SEND FEEDBACK

Daily
Averages
Monthly
Summary
Canada

VANCOUVER, BRITISH COLUMBIA


Home > North America > Canada > British Columbia
Elevation: 7 feet     Latitude: 49 11N     Longitude: 123 10W

WEATHER
 
SELECT A DAY
Number of Records: 249,704;   Date Range: 5/15/97 - 8/31/14
 
SHARE

PRINT THIS DATA

[ ← Previous Day ]
WEATHER ALMANAC - OCTOBER 1, 2013
[ Next Day → ]
[ °C ]   °F
Weather ElementAverageHighLow
Temperature50.6 °F55.4 °F (12:55 pm)46.4 °F (5:15 am)
Dewpoint46.6 °F48.2 °F (4:55 pm)42.8 °F (12:55 pm)
Humidity87.1 %100 % (5:15 am)63 % (12:55 pm)
Barometer29.96 in30.07 in (11:35 pm)29.87 in (12:35 am)
Wind Speed6.2 mph13.8 mph (11:55 am)
Wind Gust19.6 mph (9:35 pm)
Weather ElementAverage
Visibility9.2 mi
Wind DirectionSSE (146.6 °)

Weather ElementTotal
Precipitation---
Heating Degree Days14.1 (Base 65)
Growing Degree Days0.9 (Base 50)
Averaged from 65 records on October 1, 2013
WEATHER CONDITIONS BREAKOUT
WIND DIRECTION BREAKOUT
WEATHER BY HOUR - OCTOBER 1, 2013
[ °C ]   °F
Local TimeTemperatureDewpointHumidityBarometerVisibilityWind DirectionWind SpeedGust SpeedPrecipitationEventsConditions
12:35 AM48.2 °F44.6 °F87 %29.87 in10.0 miSouth (190°)5.8 mphMostly Cloudy
12:55 AM48.2 °F44.6 °F87 %29.87 in10.0 miSSW (200°)6.9 mphScattered Clouds
1:15 AM48.2 °F46.4 °F93 %29.87 in10.0 miSouth (190°)9.2 mphScattered Clouds
1:35 AM48.2 °F46.4 °F93 %29.87 in10.0 miSSW (210°)8.1 mphPartly Cloudy
1:55 AM50.0 °F46.4 °F87 %29.88 in10.0 miSSW (200°)12.7 mphPartly Cloudy
2:15 AM50.0 °F46.4 °F87 %29.88 in10.0 miSouth (190°)9.2 mphScattered Clouds
2:35 AM48.2 °F46.4 °F93 %29.88 in7.0 miSSW (210°)6.9 mphRainLight Rain
2:55 AM48.2 °F46.4 °F93 %29.88 in10.0 miSouth (190°)4.6 mphMostly Cloudy
3:15 AM48.2 °F46.4 °F93 %29.88 in10.0 miSSW (200°)6.9 mphMostly Cloudy
3:35 AM48.2 °F46.4 °F93 %29.88 in10.0 miSouth (170°)5.8 mphPartly Cloudy
3:55 AM48.2 °F46.4 °F93 %29.88 in9.0 miCalmRainLight Rain
4:15 AM48.2 °F46.4 °F93 %29.88 in5.0 miSSW (200°)5.8 mphRainLight Rain
4:35 AM48.2 °F46.4 °F93 %29.88 in4.0 miSSW (200°)4.6 mphRainLight Rain
4:55 AM48.2 °F46.4 °F93 %29.88 in9.0 miSouth (180°)3.5 mphMostly Cloudy
5:15 AM46.4 °F46.4 °F100 %29.88 in10.0 miSouth (190°)5.8 mphClear
5:35 AM48.2 °F46.4 °F93 %29.88 in10.0 miSouth (170°)6.9 mphClear
5:55 AM48.2 °F46.4 °F93 %29.88 in10.0 miSouth (170°)4.6 mphClear
6:15 AM48.2 °F46.4 °F93 %29.88 in10.0 miSouth (190°)10.4 mphClear
6:35 AM48.2 °F46.4 °F93 %29.88 in10.0 miSouth (190°)12.7 mphClear
6:55 AM48.2 °F46.4 °F93 %29.88 in10.0 miSouth (190°)9.2 mphClear
7:15 AM48.2 °F44.6 °F87 %29.89 in10.0 miSouth (190°)8.1 mphClear
7:35 AM48.2 °F44.6 °F87 %29.90 in10.0 miSouth (180°)9.2 mphScattered Clouds
9:55 AM50.0 °F46.4 °F87 %29.93 in10.0 miSouth (190°)9.2 mphMostly Cloudy
10:15 AM50.0 °F46.4 °F87 %29.93 in10.0 miSouth (190°)6.9 mphPartly Cloudy
10:35 AM50.0 °F46.4 °F87 %29.94 in10.0 miSouth (190°)6.9 mphScattered Clouds
10:55 AM51.8 °F46.4 °F82 %29.95 in10.0 miSouth (170°)4.6 mphScattered Clouds
11:15 AM53.6 °F46.4 °F77 %29.95 in10.0 miSouth (180°)5.8 mphPartly Cloudy
11:35 AM53.6 °F46.4 °F77 %29.95 in10.0 miSouth (170°)4.6 mphPartly Cloudy
11:55 AM53.6 °F46.4 °F77 %29.95 in10.0 miSouth (190°)13.8 mphScattered Clouds
12:15 PM53.6 °F46.4 °F77 %29.97 in10.0 miSouth (190°)9.2 mphScattered Clouds
12:35 PM53.6 °F46.4 °F77 %29.97 in10.0 miSouth (190°)10.4 mphPartly Cloudy
12:55 PM55.4 °F42.8 °F63 %29.97 in10.0 miSouth (180°)4.6 mphClear
1:15 PM55.4 °F44.6 °F67 %29.97 in10.0 miSouth (190°)10.4 mphPartly Cloudy
1:35 PM55.4 °F44.6 °F67 %29.98 in10.0 miSouth (190°)11.5 mphPartly Cloudy
1:55 PM55.4 °F44.6 °F67 %29.98 in10.0 miSouth (170°)4.6 mphClear
2:15 PM55.4 °F44.6 °F67 %29.98 in10.0 miSouth (180°)6.9 mphClear
2:35 PM55.4 °F44.6 °F67 %29.98 in10.0 miSouth (190°)9.2 mphClear
2:55 PM53.6 °F44.6 °F72 %29.99 in10.0 miSouth (190°)8.1 mphClear
3:15 PM53.6 °F46.4 °F77 %29.99 in10.0 miSouth (190°)5.8 mphClear
3:35 PM53.6 °F46.4 °F77 %29.99 in10.0 miSouth (180°)5.8 mphClear
3:55 PM53.6 °F46.4 °F77 %30.00 in10.0 miSouth (190°)6.9 mphClear
4:15 PM53.6 °F46.4 °F77 %30.00 in10.0 miSouth (190°)3.5 mphRainLight Rain
4:35 PM53.6 °F46.4 °F77 %30.00 in10.0 miSouth (180°)4.6 mphRainLight Rain
4:55 PM53.6 °F48.2 °F82 %30.01 in5.0 miNorthRainLight Rain
5:15 PM51.8 °F48.2 °F88 %30.01 in5.0 miCalmRainLight Rain
5:35 PM50.0 °F48.2 °F94 %30.01 in6.0 miNorthRainLight Rain
5:55 PM50.0 °F48.2 °F94 %30.01 in7.0 miCalmRainLight Rain
6:15 PM50.0 °F46.4 °F87 %30.01 in10.0 miCalmRainLight Rain
6:35 PM50.0 °F48.2 °F94 %30.02 in7.0 miCalmRainLight Rain
6:55 PM48.2 °F48.2 °F100 %30.02 in5.0 miCalmRainRain
7:15 PM48.2 °F48.2 °F100 %30.02 in9.0 miCalmRainLight Rain
7:35 PM48.2 °F48.2 °F100 %30.03 in10.0 miCalmMostly Cloudy
7:55 PM48.2 °F48.2 °F100 %30.03 in10.0 miCalmScattered Clouds
8:15 PM48.2 °F48.2 °F100 %30.04 in10.0 miCalmScattered Clouds
8:35 PM48.2 °F48.2 °F100 %30.03 in10.0 miCalmMostly Cloudy
8:55 PM48.2 °F48.2 °F100 %30.03 in10.0 miCalmScattered Clouds
9:15 PM50.0 °F48.2 °F94 %30.04 in10.0 miSouth (180°)8.1 mphMostly Cloudy
9:35 PM51.8 °F48.2 °F88 %30.04 in10.0 miSouth (180°)6.9 mph19.6 mphMostly Cloudy
9:55 PM51.8 °F48.2 °F88 %30.04 in10.0 miSouth (190°)10.4 mph16.1 mphMostly Cloudy
10:15 PM51.8 °F48.2 °F88 %30.05 in10.0 miSouth (190°)10.4 mph17.3 mphScattered Clouds
10:35 PM51.8 °F48.2 °F88 %30.05 in10.0 miSouth (170°)9.2 mphMostly Cloudy
10:55 PM50.0 °F48.2 °F94 %30.06 in10.0 miSouth (180°)10.4 mph16.1 mphMostly Cloudy
11:15 PM50.0 °F48.2 °F94 %30.06 in10.0 miSouth (180°)8.1 mphOvercast
11:35 PM50.0 °F48.2 °F94 %30.07 in8.0 miSouth (180°)8.1 mphRainLight Rain
11:55 PM50.0 °F48.2 °F94 %30.07 in4.0 miSSW (200°)10.4 mphRainLight Rain
Hourly data recorded from CZBB, located miles away from Vancouver, British Columbia







STORIES FROM OUR PARTNERS